Home > Weather > Yonkers > Past weeks

Flag for USA Weather for the Past 2 Weeks in Yonkers, New York, USA

Now
48 °F

Light rain. Overcast.


Feels Like: 48 °F
Forecast: 43 / 61 °F
Wind: No wind

Location: Teterboro Airport

Current Time: Apr 30, 2016 at 12:11:50 AM

Latest Report: Apr 29, 2016 at 10:51 PM


Visibility: 10 mi

Pressure: 30.13 "Hg

Humidity: 77%

Dew Point: 41 °F

Location of YonkersLocation

Historic Weather in Yonkers — Graph

°F

Yonkers Temperature Yesterday

Maximum temperature yesterday: 55 °F (at 1:51 PM)
Minimum temperature yesterday: 49 °F (at 12:51 AM)
Average temperature yesterday: 51 °F

High & Low Weather Summary for the Past Weeks

 TemperatureHumidityPressure
High82 °F (Apr 22, 2:51 PM)88% (Apr 26, 6:01 AM)30.48 "Hg (Apr 26, 6:01 AM)
Low40 °F (Apr 15, 4:51 AM)8% (Apr 20, 3:51 PM)29.63 "Hg (Apr 26, 2:51 PM)
Average58 °F45%30.07 "Hg
* Reported Apr 14 9:51 PM — Apr 29 9:51 PM, Yonkers, Weather by CustomWeather, © 2016

Note: Actual official high and low records may vary slightly from our data, if they occured in-between our weather recording intervals... More about our weather records

Advertising

Yonkers Weather History for the Previous 24 Hours

Scroll right to see more
 ConditionsComfort  
Time TempWeatherWind HumidityBarometerVisibility
9:51 PM
Fri, Apr 29
49 °FRain. Overcast.3 mph74%30.15 "Hg9 mi
8:51 PM49 °FRain. Overcast.3 mph71%30.11 "Hg10 mi
7:51 PM50 °FRain. More clouds than sun.3 mph66%30.08 "Hg10 mi
6:51 PM52 °FLight rain. Overcast.5 mph53%30.08 "Hg10 mi
5:51 PM53 °FOvercast.8 mph48%30.07 "Hg10 mi
4:51 PM54 °FOvercast.7 mph43%30.07 "Hg10 mi
3:51 PM55 °FOvercast.8 mph44%30.07 "Hg10 mi
2:51 PM55 °FMostly cloudy.7 mph44%30.07 "Hg10 mi
1:51 PM55 °FMostly cloudy.6 mph42%30.08 "Hg10 mi
12:51 PM54 °FOvercast.8 mph45%30.09 "Hg10 mi
11:51 AM54 °FOvercast.7 mph45%30.11 "Hg10 mi
10:51 AM52 °FOvercast.8 mph47%30.11 "Hg10 mi
9:51 AM51 °FOvercast.6 mph54%30.11 "Hg10 mi
8:51 AM50 °FOvercast.7 mph63%30.10 "Hg10 mi
7:51 AM50 °FMostly cloudy.7 mph54%30.09 "Hg10 mi
6:51 AM50 °FOvercast.7 mph50%30.08 "Hg10 mi
5:51 AM50 °FMostly cloudy.6 mph46%30.05 "Hg10 mi
4:51 AM50 °FOvercast.5 mph50%30.05 "Hg10 mi
3:51 AM50 °FOvercast.No wind63%30.04 "Hg10 mi
2:51 AM49 °FLight rain. Overcast.No wind64%30.03 "Hg10 mi
1:51 AM49 °FOvercast.No wind64%30.03 "Hg10 mi
12:51 AM49 °FOvercast.3 mph64%30.05 "Hg10 mi
Weather by CustomWeather, © 2016

See weather overviewHow to use our weather pages